Preview of NWS' New Version of Forecast
This preview is not operational and should not be used for support decisions.

Regional Weather Roundup (RWR)

Issued by Philadelphia/Mt Holly (PHI)

                            
000
ASUS41 KPHI 190212
RWRPHI

REGIONAL WEATHER ROUNDUP
NATIONAL WEATHER SERVICE MOUNT HOLLY NJ
900 PM EST FRI JAN 18 2019

NOTE:  "FAIR" INDICATES FEW OR NO CLOUDS BELOW 12,000 FEET WITH NO
SIGNIFICANT WEATHER AND/OR OBSTRUCTIONS TO VISIBILITY.

 * = STATION DOES NOT REPORT PRECIPITATION (E.G. RAIN, SNOW, ETC.) 
        OR FOG.

NJZ015>026-190300-
SOUTHERN NEW JERSEY
  
CITY           SKY/WX    TMP DP  RH WIND       PRES   REMARKS
POMONA         FAIR      31  31 100 W3        30.16R FOG              
WILDWOOD*      FAIR      33  31  92 NW5       30.18R WCI  29          
MILLVILLE      CLOUDY    31  30  96 W3        30.17R FOG              
WRIGHTSTOWN    MOCLDY    31  30  94 W3        30.12S                  
MOUNT HOLLY    CLOUDY    30  29  96 CALM      30.16R FOG              
TRENTON        CLOUDY    34  31  88 W6        30.14R FOG     WCI  29  

$$
NJZ001>014-190300-
NORTHERN NEW JERSEY
  
CITY           SKY/WX    TMP DP  RH WIND       PRES   REMARKS
SUSSEX         CLOUDY    31  30  96 CALM      30.12R                  
ANDOVER*         N/A     30  28  92 CALM      30.12R                  
MORRISTOWN     PTCLDY    28  28 100 CALM      30.14R                  
NEWARK         MOCLDY    34  30  85 W10       30.13R WCI  26          
TETERBORO      CLOUDY    34  30  85 VRB5      30.12R WCI  30          
CALDWELL       CLOUDY    31  29  92 CALM      30.14R FOG              
SOMERVILLE     CLOUDY    29  28  96 CALM      30.13R FOG              
ALLAIRE*       FAIR      30  28  92 W5        30.15R FOG     WCI  25  
TOMS RIVER*    FAIR      28  27  96 CALM      30.16S FOG              

$$
PAZ043-044-047-054-055-060>062-066>071-190300-
EASTERN PENNSYLVANIA
  
CITY           SKY/WX    TMP DP  RH WIND       PRES   REMARKS
PHILADELPHIA   CLOUDY    35  30  82 W9        30.18R WCI  28          
NORTH PHILA    CLOUDY    36  31  82 W6        30.17R HAZE    WCI  31  
BLUE BELL*     CLOUDY    32  32 100 CALM      30.17R                  
DOYLESTOWN     CLOUDY    32  28  85 CALM      30.14R                  
QUAKERTOWN*    CLOUDY    28  28 100 CALM      30.14  FOG              
PERKASIE*      CLOUDY    32  32 100 W3        30.15R FOG              
POTTSTOWN      CLOUDY    31  30  96 CALM      30.17R FOG              
LANCASTER      CLOUDY    34  31  88 W5        30.16R FOG     WCI  30  
COATESVILLE    CLOUDY    32  30  93 NW5       30.16R FOG     WCI  27  
READING        CLOUDY    34  32  92 W3        30.15R                  
ALLENTOWN      CLOUDY    33  28  81 CALM      30.15R                  
MOUNT POCONO   CLOUDY    28  23  81 NW13G23   30.06R WCI  17          
HAZLETON       CLOUDY   N/A N/A N/A W3        30.11S                  
LEHIGHTON      CLOUDY    36  30  80 CALM      30.15R                  
WILKES BARRE   CLOUDY    32  22  66 N7        30.12S WCI  26          

$$
DEZALL-MDZ008-012-015-019-020-190300-
DELAWARE AND EASTERN MARYLAND
  
CITY           SKY/WX    TMP DP  RH WIND       PRES   REMARKS
WILMINGTON     CLOUDY    35  32  88 SW7       30.19R FOG     WCI  29  
DOVER          CLOUDY    34  32  93 W3        30.18R                  
GEORGETOWN     FAIR      36  32  85 NW3       30.18R                  
EASTON         CLOUDY    34  32  93 CALM      30.22R FOG              
PATUXENT       CLOUDY    35  35 100 CALM      30.18  FOG              
OCEAN CITY     FAIR      34  32  92 N6        30.18R WCI  29          
WALLOPS ISLAND CLOUDY    36  32  85 W3        30.19R                  
CAMBRIDGE      MOCLDY    34  32  93 NE9       30.17S FOG     WCI  26  
SALISBURY      FAIR      34  33  96 N5        30.17R WCI  30          

$$
PAZ001-021-NYZ056-072-MDZ011-DCZ001-190300-
OTHER NEARBY LOCATIONS
  
CITY           SKY/WX    TMP DP  RH WIND       PRES   REMARKS
HARRISBURG     CLOUDY    34  31  88 SE3       30.16R FOG              
STATE COLLEGE  CLOUDY    32  27  80 NW7       30.14S WCI  26          
WILLIAMSPORT   CLOUDY    34  25  69 NW6       30.15R WCI  29          
BINGHAMTON     CLOUDY    27  18  69 W7        30.09R WCI  19          
NEW YORK CITY  FAIR      35  30  82 MISG      30.14R                  
BALTIMORE      CLOUDY    37  35  92 W3        30.18R                  
WASHINGTON DC  CLOUDY    39  35  86 CALM      30.20R                  

$$